• In Hungary
  • List of Countries
  • For 7 days
  • Water Temperature
  • Satellite Maps
  • Weather Map
  • News
  • Weather Widgets
  • user-avatar
    Login

    Hourly Weather Sevenoaks

    Today, 24 November, Friday

    Time Temperature Precipitation Wind Pressure Humidity
    00:00 +7°C° 0.5 mm 2 mps 745 mmHg 83%
    01:00 +7°C° 0.9 mm 2 mps 745 mmHg 84%
    02:00 +6°C° 0.9 mm 2 mps 744 mmHg 85%
    03:00 +6°C° 0.9 mm 2 mps 744 mmHg 87%
    04:00 +6°C° 0.2 mm 2 mps 745 mmHg 86%
    05:00 +6°C° 0.2 mm 2 mps 745 mmHg 86%
    06:00 +6°C° 0.2 mm 2 mps 746 mmHg 86%
    07:00 +6°C° 0 mm 2 mps 746 mmHg 84%
    08:00 +6°C° 0 mm 2 mps 747 mmHg 83%
    09:00 +6°C° 0 mm 2 mps 747 mmHg 82%
    10:00 +6°C° 0 mm 2 mps 748 mmHg 76%
    11:00 +8°C° 0 mm 1 mps 748 mmHg 71%
    12:00 +9°C° 0 mm 1 mps 748 mmHg 65%
    13:00 +8°C° 0.1 mm 1 mps 748 mmHg 66%
    14:00 +8°C° 0.1 mm 1 mps 748 mmHg 67%
    15:00 +8°C° 0.1 mm 1 mps 748 mmHg 67%
    16:00 +7°C° 0 mm 1 mps 748 mmHg 69%
    17:00 +7°C° 0 mm 1 mps 748 mmHg 71%
    18:00 +6°C° 0 mm 1 mps 748 mmHg 73%
    19:00 +4°C° 0 mm 2 mps 748 mmHg 75%
    20:00 +4°C° 0 mm 2 mps 748 mmHg 76%
    21:00 +3°C° 0 mm 2 mps 748 mmHg 78%
    22:00 +3°C° 0 mm 2 mps 748 mmHg 79%
    23:00 +3°C° 0 mm 2 mps 748 mmHg 80%

    Tomorrow, 25 November, Saturday

    Time Temperature Precipitation Wind Pressure Humidity
    00:00 +1°C° 0 mm 3 mps 748 mmHg 80%
    01:00 +1°C° 0 mm 3 mps 748 mmHg 80%
    02:00 +1°C° 0 mm 3 mps 748 mmHg 80%
    03:00 +1°C° 0 mm 3 mps 748 mmHg 80%
    04:00 +1°C° 0 mm 3 mps 748 mmHg 80%
    05:00 +1°C° 0 mm 3 mps 748 mmHg 80%
    06:00 +1°C° 0 mm 3 mps 749 mmHg 81%
    07:00 0°C° 0 mm 4 mps 749 mmHg 80%
    08:00 +1°C° 0 mm 4 mps 750 mmHg 78%
    09:00 +1°C° 0 mm 4 mps 751 mmHg 77%
    10:00 +2°C° 0 mm 5 mps 751 mmHg 73%
    11:00 +2°C° 0 mm 5 mps 752 mmHg 69%
    12:00 +3°C° 0 mm 5 mps 752 mmHg 64%
    13:00 +3°C° 0 mm 5 mps 753 mmHg 65%
    14:00 +3°C° 0 mm 5 mps 753 mmHg 65%
    15:00 +3°C° 0 mm 5 mps 753 mmHg 66%
    16:00 +2°C° 0 mm 5 mps 754 mmHg 69%
    17:00 +1°C° 0 mm 5 mps 754 mmHg 71%
    18:00 +1°C° 0 mm 5 mps 755 mmHg 74%
    19:00 +1°C° 0 mm 5 mps 755 mmHg 74%
    20:00 0°C° 0 mm 5 mps 756 mmHg 75%
    21:00 0°C° 0 mm 5 mps 756 mmHg 75%
    22:00 0°C° 0 mm 5 mps 757 mmHg 75%
    23:00 0°C° 0 mm 5 mps 757 mmHg 75%

    Day after tomorrow, 26 November, Sunday

    Time Temperature Precipitation Wind Pressure Humidity
    00:00 0°C° 0 mm 5 mps 757 mmHg 75%
    01:00 0°C° 0 mm 5 mps 757 mmHg 76%
    02:00 -1°C° 0 mm 5 mps 757 mmHg 76%
    03:00 -1°C° 0 mm 5 mps 757 mmHg 77%
    04:00 -2°C° 0 mm 6 mps 758 mmHg 77%
    05:00 -2°C° 0 mm 6 mps 758 mmHg 77%
    06:00 -2°C° 0 mm 6 mps 758 mmHg 78%
    07:00 -1°C° 0 mm 6 mps 759 mmHg 76%
    08:00 -1°C° 0 mm 6 mps 759 mmHg 75%
    09:00 -1°C° 0 mm 6 mps 759 mmHg 74%
    10:00 +1°C° 0 mm 6 mps 760 mmHg 70%
    11:00 +2°C° 0 mm 6 mps 760 mmHg 65%
    12:00 +3°C° 0 mm 6 mps 760 mmHg 61%
    13:00 +3°C° 0 mm 6 mps 760 mmHg 62%
    14:00 +3°C° 0 mm 5 mps 760 mmHg 64%
    15:00 +3°C° 0 mm 5 mps 760 mmHg 65%
    16:00 +2°C° 0 mm 5 mps 760 mmHg 68%
    17:00 +2°C° 0 mm 5 mps 760 mmHg 71%
    18:00 +1°C° 0 mm 4 mps 760 mmHg 74%
    19:00 +1°C° 0 mm 4 mps 760 mmHg 75%
    20:00 +1°C° 0 mm 4 mps 760 mmHg 77%
    21:00 +1°C° 0 mm 4 mps 760 mmHg 78%
    22:00 +1°C° 0 mm 4 mps 760 mmHg 76%
    23:00 +1°C° 0 mm 4 mps 760 mmHg 75%

    27 November, Monday

    Time Temperature Precipitation Wind Pressure Humidity
    00:00 +1°C° 0 mm 4 mps 760 mmHg 73%
    01:00 +3°C° 0 mm 4 mps 759 mmHg 76%
    02:00 +3°C° 0 mm 4 mps 759 mmHg 78%
    03:00 +2°C° 0 mm 5 mps 759 mmHg 80%
    04:00 +2°C° 0 mm 5 mps 758 mmHg 81%
    05:00 +3°C° 0 mm 5 mps 757 mmHg 82%
    06:00 +3°C° 0 mm 6 mps 757 mmHg 82%
    07:00 +4°C° 0.5 mm 7 mps 756 mmHg 83%
    08:00 +5°C° 0.5 mm 7 mps 756 mmHg 85%
    09:00 +5°C° 0.5 mm 8 mps 755 mmHg 86%
    10:00 +6°C° 0.7 mm 8 mps 755 mmHg 86%
    11:00 +6°C° 0.7 mm 8 mps 755 mmHg 86%
    12:00 +6°C° 0.7 mm 8 mps 754 mmHg 86%
    13:00 +6°C° 0.1 mm 7 mps 754 mmHg 82%
    14:00 +7°C° 0.1 mm 6 mps 754 mmHg 79%
    15:00 +6°C° 0.1 mm 5 mps 753 mmHg 75%
    16:00 +5°C° 0 mm 5 mps 754 mmHg 76%
    17:00 +5°C° 0 mm 5 mps 754 mmHg 78%
    18:00 +3°C° 0 mm 5 mps 754 mmHg 79%
    19:00 +4°C° 0 mm 4 mps 754 mmHg 80%
    20:00 +3°C° 0 mm 4 mps 754 mmHg 82%
    21:00 +3°C° 0 mm 4 mps 754 mmHg 83%
    22:00 +3°C° 0 mm 4 mps 753 mmHg 83%
    23:00 +3°C° 0 mm 4 mps 753 mmHg 84%

    28 November, Tuesday

    Time Temperature Precipitation Wind Pressure Humidity
    00:00 +3°C° 0 mm 4 mps 753 mmHg 85%
    01:00 +3°C° 0 mm 4 mps 752 mmHg 84%
    02:00 +3°C° 0 mm 4 mps 751 mmHg 83%
    03:00 +2°C° 0 mm 5 mps 750 mmHg 82%
    04:00 +3°C° 0.1 mm 5 mps 749 mmHg 81%
    05:00 +4°C° 0.1 mm 6 mps 748 mmHg 80%
    06:00 +4°C° 0.1 mm 7 mps 747 mmHg 80%
    07:00 +5°C° 0.5 mm 8 mps 746 mmHg 80%
    08:00 +5°C° 0.5 mm 9 mps 745 mmHg 80%
    09:00 +5°C° 0.5 mm 10 mps 744 mmHg 80%
    10:00 +6°C° 0.1 mm 10 mps 743 mmHg 75%
    11:00 +6°C° 0.1 mm 10 mps 742 mmHg 70%
    12:00 +7°C° 0.1 mm 11 mps 741 mmHg 65%
    13:00 +6°C° 0.1 mm 10 mps 741 mmHg 66%
    14:00 +5°C° 0.1 mm 10 mps 741 mmHg 67%
    15:00 +5°C° 0.1 mm 9 mps 741 mmHg 68%
    16:00 +5°C° 0 mm 8 mps 741 mmHg 71%
    17:00 +4°C° 0 mm 8 mps 741 mmHg 75%
    18:00 +4°C° 0 mm 7 mps 741 mmHg 78%
    19:00 +3°C° 0 mm 7 mps 741 mmHg 80%
    20:00 +3°C° 0 mm 7 mps 741 mmHg 83%
    21:00 +3°C° 0 mm 6 mps 741 mmHg 85%
    22:00 +3°C° 0 mm 6 mps 741 mmHg 85%
    23:00 +2°C° 0 mm 6 mps 741 mmHg 86%

    29 November, Wednesday

    Time Temperature Precipitation Wind Pressure Humidity
    00:00 +2°C° 0 mm 6 mps 741 mmHg 87%
    01:00 +2°C° 0 mm 6 mps 741 mmHg 87%
    02:00 +2°C° 0 mm 6 mps 741 mmHg 87%
    03:00 +2°C° 0 mm 6 mps 741 mmHg 87%
    04:00 +2°C° 0.5 mm 6 mps 742 mmHg 87%
    05:00 +2°C° 0.5 mm 6 mps 742 mmHg 86%
    06:00 +2°C° 0.5 mm 6 mps 742 mmHg 86%
    07:00 +2°C° 1.1 mm 7 mps 742 mmHg 83%
    08:00 +2°C° 1.1 mm 7 mps 743 mmHg 81%
    09:00 +1°C° 1.1 mm 8 mps 743 mmHg 78%
    10:00 +1°C° 0.1 mm 8 mps 744 mmHg 77%
    11:00 +2°C° 0.1 mm 7 mps 744 mmHg 75%
    12:00 +3°C° 0.1 mm 7 mps 745 mmHg 73%
    13:00 +3°C° 0 mm 7 mps 745 mmHg 74%
    14:00 +3°C° 0 mm 6 mps 745 mmHg 75%
    15:00 +3°C° 0 mm 6 mps 746 mmHg 77%
    16:00 +2°C° 0 mm 6 mps 747 mmHg 78%
    17:00 +2°C° 0 mm 6 mps 747 mmHg 79%
    18:00 +2°C° 0 mm 6 mps 748 mmHg 79%
    19:00 +1°C° 0 mm 6 mps 748 mmHg 80%
    20:00 +1°C° 0 mm 6 mps 749 mmHg 80%
    21:00 +1°C° 0 mm 6 mps 749 mmHg 80%
    22:00 +1°C° 0 mm 6 mps 750 mmHg 80%
    23:00 -1°C° 0 mm 6 mps 750 mmHg 81%
    Show more